Location: Lafig�re
(44.4503°N, 4.0357°E)
Time: 08:51:02
(UTC+00:00)

Courier 1B Rocket - All Passes

Search period start: 24 January 2021 00:00
Search period end: 03 February 2021 00:00
Orbit: 920 x 1202 km, 28.2° (Epoch: 23 January)

Date Brightness Start Highest point End Pass type
(mag) Time Alt. Az. Time Alt. Az. Time Alt. Az.
24 Jan - 05:47:43 10° S 05:50:19 12° SSE 05:52:58 10° SE visible
24 Jan - 07:37:41 10° SW 07:42:36 21° S 07:47:45 10° SE daylight
24 Jan - 09:30:07 10° SW 09:35:08 20° S 09:40:19 10° SE daylight
24 Jan - 11:25:15 10° SW 11:27:34 12° SSW 11:29:54 10° S daylight
25 Jan - 06:37:25 10° SSW 06:41:50 18° SSE 06:46:25 10° SE visible
25 Jan - 08:29:14 10° SW 08:34:16 21° S 08:39:32 10° SE daylight
25 Jan - 10:23:02 10° SW 10:26:45 15° SSW 10:30:34 10° SSE daylight
26 Jan - 05:37:32 10° SSW 05:41:06 15° SSE 05:44:48 10° SE visible
26 Jan - 07:28:35 10° SW 07:33:27 21° S 07:38:33 10° SE daylight
26 Jan - 09:21:35 10° SW 09:25:56 17° SSW 09:30:26 10° SSE daylight
27 Jan - 04:38:24 10° S 04:40:27 12° SSE 04:42:32 10° SE visible
27 Jan - 06:28:08 10° SW 06:32:41 19° S 06:37:26 10° SE visible
27 Jan - 08:20:31 10° SW 08:25:07 19° S 08:29:55 10° SSE daylight
27 Jan - 10:16:08 10° SSW 10:17:31 11° SSW 10:18:55 10° S daylight
28 Jan - 05:27:55 10° SSW 05:31:57 17° SSE 05:36:07 10° SE visible
28 Jan - 07:19:41 10° SW 07:24:19 20° S 07:29:10 10° SE daylight
28 Jan - 09:13:33 10° SW 09:16:44 13° SSW 09:20:00 10° S daylight
29 Jan - 04:28:04 10° SSW 04:31:16 14° SSE 04:34:34 10° SE visible
29 Jan - 06:19:04 10° SW 06:23:34 19° S 06:28:15 10° SE visible
29 Jan - 08:12:06 10° SW 08:15:58 16° SSW 08:19:58 10° SSE daylight
30 Jan - 03:29:04 10° S 03:30:39 11° SSE 03:32:14 10° SE visible
30 Jan - 05:18:38 10° SW 05:22:50 18° S 05:27:12 10° SE visible
30 Jan - 07:11:02 10° SW 07:15:12 17° S 07:19:32 10° SSE daylight
31 Jan - 04:18:25 10° SSW 04:22:09 16° S 04:25:59 10° SE visible
31 Jan - 06:10:13 10° SW 06:14:28 18° S 06:18:53 10° SE visible
31 Jan - 08:04:20 10° SW 08:06:48 12° SSW 08:09:20 10° S daylight
01 Feb - 03:18:31 10° SSW 03:21:30 14° SSE 03:24:31 10° SE visible
01 Feb - 05:09:34 10° SW 05:13:45 18° S 05:18:04 10° SE visible
01 Feb - 07:02:43 10° SW 07:06:05 14° SSW 07:09:33 10° SSE daylight
02 Feb - 02:19:29 10° S 02:20:53 11° SSE 02:22:16 10° SSE visible
02 Feb - 04:09:06 10° SW 04:13:04 17° S 04:17:07 10° SE visible
02 Feb - 06:01:36 10° SW 06:05:23 16° S 06:09:15 10° SSE visible
